Wind_Speed
19 19 18 18 18 18 17 17 16 16 15 15 15 14 14 13 12 11 11 10 10 9 8 8 8 7 7 7 8 7 7 7 7 7 7 6 6 6 6 6 6 6 6 6 6 6 5 6 5 5 5 4 4 4 4 4 5 5 5 5 5 5 6 6 6 7 8 9 9 9 8 8 9 10 10 9 10 11 12 15 14 12 11 9 8 7 7 8
19 19 19 19 19 18 18 17 17 17 16 16 15 14 13 12 12 11 10 10 9 8 8 8 8 8 8 8 8 8 7 7 7 7 7 6 6 7 6 6 6 6 6 6 6 6 6 6 6 5 5 5 4 4 4 4 5 5 5 4 5 5 6 6 7 8 8 8 8 8 8 9 9 10 10 10 11 11 13 16 15 14 13 11 9 8 7 8
20 20 20 20 19 19 18 18 17 17 16 16 15 14 13 12 11 10 10 9 8 8 7 7 8 8 8 8 8 8 7 7 6 7 7 7 7 7 7 6 6 6 6 6 6 6 6 6 5 5 5 5 4 5 5 5 5 5 5 5 5 5 5 6 7 7 8 8 8 9 9 10 10 11 10 11 12 12 14 16 16 16 14 13 11 10 9 9
19 20 20 20 19 19 19 18 18 17 17 16 15 14 13 12 11 10 9 9 8 8 8 8 8 8 8 8 8 8 8 7 7 7 8 8 8 8 7 7 6 6 6 6 5 5 4 4 4 5 5 5 5 5 5 5 5 4 5 5 5 6 6 6 7 8 8 9 9 10 11 11 12 11 11 12 12 13 14 15 16 15 13 12 12 11 11 11
19 19 20 20 19 19 19 18 18 17 16 16 15 14 13 12 11 10 9 9 8 8 8 8 8 8 8 8 8 8 8 7 8 8 8 8 9 8 7 7 7 7 6 6 5 4 4 4 4 5 5 5 5 5 5 5 5 5 5 6 6 6 7 8 8 9 9 10 11 12 13 12 13 13 12 12 12 13 14 14 14 13 12 12 12 12 12 12
19 19 20 20 20 19 19 18 18 17 17 16 15 14 13 12 11 10 10 9 8 8 8 8 8 8 8 8 8 8 8 7 7 8 9 10 9 8 8 8 8 7 6 6 5 5 5 5 5 6 6 6 6 7 7 7 7 7 7 7 7 7 9 10 10 11 10 11 12 13 14 13 13 13 13 12 13 13 12 12 13 13 13 12 12 12 12 12
19 20 20 20 20 20 19 19 18 18 17 16 16 15 14 13 12 11 10 9 9 8 9 9 9 9 9 9 8 9 9 9 9 7 9 10 9 9 9 9 8 7 6 6 6 6 6 6 7 7 7 8 8 8 9 9 9 9 9 9 9 9 10 11 12 12 12 12 13 14 14 13 14 14 13 13 13 13 12 12 13 13 13 13 12 12 12 13
19 21 22 21 21 21 20 20 19 19 18 17 17 16 15 14 13 12 11 10 10 10 10 10 10 9 9 9 9 9 10 12 11 9 10 10 10 10 9 9 8 7 7 7 7 7 7 8 8 9 9 10 9 9 9 10 10 10 11 10 11 11 12 12 12 12 13 14 14 15 14 14 14 14 14 14 14 14 12 12 13 13 13 14 13 13 13 12
20 21 22 23 23 22 21 21 20 20 19 19 18 17 16 15 14 13 12 12 11 11 11 11 11 11 11 10 11 11 11 13 12 11 11 11 11 11 10 10 9 9 8 8 9 9 9 10 10 11 11 11 11 11 11 11 12 11 11 11 12 12 12 12 12 12 14 15 16 16 15 15 14 15 15 15 14 14 13 13 13 13 14 15 14 14 14 13
21 22 23 24 24 23 23 22 22 21 21 20 19 19 18 17 16 15 14 14 13 12 12 12 12 12 12 12 12 12 13 13 13 13 13 13 12 12 12 11 11 10 10 10 10 11 11 12 12 13 14 14 13 13 13 13 13 13 12 12 13 13 13 13 13 13 15 16 16 15 15 15 15 16 16 14 14 14 14 14 14 15 16 16 16 16 15 15
23 23 23 24 25 25 25 24 23 23 22 22 21 20 19 18 17 17 16 15 14 14 13 13 14 14 14 14 14 14 14 14 14 14 14 14 14 13 13 13 12 12 12 12 12 13 13 14 14 14 15 15 14 14 14 14 14 13 13 14 14 15 14 14 14 14 15 16 15 15 16 17 17 17 17 15 15 15 15 15 15 16 17 17 17 17 17 17
24 24 24 25 26 26 26 26 25 25 24 23 23 22 21 20 19 18 18 17 16 15 15 15 15 15 16 15 15 15 16 16 15 15 15 15 15 15 14 14 14 14 14 14 14 14 14 15 15 15 16 16 15 14 14 14 14 14 14 15 15 15 15 14 15 15 16 16 16 16 17 18 18 17 16 15 15 16 16 17 17 18 18 18 18 18 18 18
26 26 25 25 26 26 27 27 26 26 25 24 24 23 22 22 21 20 19 18 18 17 17 17 17 17 17 17 16 17 18 17 17 16 16 16 16 16 16 16 16 15 15 16 16 16 16 16 16 17 17 17 17 16 16 16 15 16 16 17 16 15 16 15 14 15 15 16 17 17 14 14 16 15 14 14 15 16 17 18 19 20 20 19 19 19 20 20
28 28 27 26 26 27 27 28 27 27 26 26 25 24 24 23 22 21 21 20 20 19 19 18 18 18 19 18 17 18 19 19 19 18 17 17 17 17 17 17 17 17 17 17 17 17 17 17 17 18 18 18 18 18 18 18 17 18 17 18 17 14 14 14 13 13 13 14 15 16 13 14 17 16 15 15 15 16 17 18 20 21 21 20 20 20 21 21
31 30 29 28 27 27 28 28 28 28 27 27 27 26 25 24 24 23 22 22 21 21 20 20 20 20 21 20 19 19 20 20 20 19 19 19 19 19 19 18 18 19 18 18 18 18 18 18 18 19 19 19 19 18 18 18 18 18 16 17 17 14 15 16 15 15 14 13 14 15 14 15 17 16 15 15 15 15 16 18 20 21 21 21 22 22 22 22
33 32 31 31 29 29 29 29 29 28 29 29 28 27 27 26 25 25 24 23 23 23 22 22 21 21 22 21 20 21 21 21 21 21 20 20 20 20 20 20 20 20 20 20 20 19 19 19 19 20 20 20 20 19 18 18 20 19 17 19 19 17 17 17 16 15 14 14 16 16 16 17 17 16 16 17 17 17 17 18 20 21 22 23 23 23 22 22
35 34 33 33 32 31 30 30 30 29 30 30 30 29 28 28 27 26 26 25 25 24 24 24 23 23 23 21 20 20 20 21 21 22 22 22 21 21 21 21 21 21 21 21 20 20 20 20 21 21 20 21 21 19 16 17 19 18 17 18 19 18 17 17 16 16 14 15 17 18 20 21 20 20 20 20 20 20 20 20 22 23 23 24 24 24 23 22
37 36 35 35 34 33 32 31 31 30 31 31 31 30 30 29 29 28 27 26 26 26 26 25 24 25 25 22 21 19 20 21 21 21 21 21 21 21 21 21 21 21 21 21 22 21 21 21 22 21 22 23 23 22 19 16 17 16 15 17 18 19 19 19 19 17 16 17 18 20 23 23 23 24 23 23 24 23 23 24 24 25 25 25 25 24 23 21
39 38 37 36 36 35 34 33 32 32 32 32 31 31 31 30 30 29 28 28 28 27 26 25 24 24 24 22 20 20 20 21 21 21 21 21 21 21 22 22 22 22 22 22 22 22 21 22 22 23 24 25 24 22 19 18 17 16 18 19 20 21 22 23 21 19 20 20 22 24 25 26 26 26 26 26 26 26 25 25 25 25 24 24 24 22 20 19
41 39 38 38 37 37 36 34 34 33 33 33 32 32 32 31 30 30 30 30 29 28 28 27 26 25 24 23 22 21 21 21 20 19 20 20 20 20 21 21 22 22 22 22 22 22 22 24 26 26 26 24 22 19 19 20 19 19 20 21 23 24 25 26 23 22 22 22 25 26 27 28 27 26 27 27 28 27 26 26 25 24 23 23 22 20 19 18
42 40 39 38 38 37 37 36 35 34 34 34 33 33 32 30 30 31 31 30 30 29 30 30 30 30 28 27 26 25 24 23 22 21 20 20 20 20 21 22 22 23 23 23 23 23 24 27 27 25 24 22 21 21 21 22 21 21 22 23 25 26 27 27 26 25 25 25 28 28 29 31 28 26 27 27 28 28 27 26 25 23 23 22 20 19 19 18
43 42 40 39 39 38 38 38 36 35 35 35 34 33 32 31 31 31 31 32 32 31 31 31 32 32 30 29 29 28 27 27 26 25 25 24 24 24 24 24 24 25 24 23 23 25 27 30 28 25 24 24 24 24 23 22 23 23 23 24 26 28 28 26 26 27 25 25 27 27 28 31 29 27 28 28 28 28 27 25 24 23 22 20 18 17 18 18
45 43 41 40 40 39 39 38 37 37 36 36 34 32 32 31 31 31 31 34 35 33 33 34 34 33 32 31 31 30 30 29 27 27 27 26 26 26 27 26 27 27 27 27 27 28 29 29 25 22 22 23 23 24 23 23 24 25 26 26 28 29 26 23 24 26 24 24 25 26 30 34 32 30 30 29 29 27 25 24 24 24 21 18 17 17 17 17
46 44 42 42 41 41 40 39 40 38 37 35 33 32 32 31 31 30 31 34 38 38 36 35 36 36 34 33 32 32 32 30 29 29 28 27 27 28 29 29 29 31 30 29 29 31 32 30 26 24 23 23 22 21 22 23 25 27 27 27 29 28 26 24 24 25 26 27 28 27 29 34 34 30 27 26 26 25 23 23 24 22 20 18 17 17 17 18
45 44 44 43 42 42 41 42 42 39 36 35 32 32 32 31 30 30 30 32 40 42 38 38 38 37 37 35 35 34 33 33 32 31 30 30 30 30 31 30 31 33 32 30 31 33 34 32 30 29 29 28 27 26 25 23 25 27 28 28 28 26 26 25 24 24 23 24 27 23 16 17 20 18 17 17 17 18 19 19 20 19 19 18 17 17 18 18
44 44 43 43 43 43 43 45 42 38 37 34 32 32 31 31 29 28 28 30 41 46 41 39 37 36 37 38 37 34 33 36 35 32 32 32 32 32 33 34 34 34 33 30 30 33 35 33 31 30 30 30 30 30 29 27 26 29 30 30 27 26 26 24 23 21 17 15 17 15 11 9 12 11 11 12 13 13 13 12 13 14 15 16 16 16 17 17
44 44 43 43 43 43 45 45 40 38 37 33 33 33 31 30 27 27 23 20 31 42 40 39 37 36 35 34 34 33 34 36 33 33 35 34 35 35 36 37 37 36 35 31 29 32 34 31 30 30 29 30 32 32 31 27 27 29 31 29 26 25 23 20 19 18 17 17 16 18 18 13 17 21 17 15 18 17 16 14 13 12 13 14 15 15 15 15
46 44 43 43 43 43 44 43 40 38 35 32 33 32 29 28 25 23 16 8 15 23 24 29 35 36 34 32 31 33 36 36 31 31 34 35 37 38 38 40 39 37 35 32 31 35 34 30 29 28 27 29 31 30 26 24 27 29 28 27 24 21 19 16 15 16 18 18 16 20 21 12 16 27 23 20 24 21 18 17 16 15 15 15 15 15 15 16
50 47 45 43 43 44 44 44 43 38 34 33 32 30 28 25 23 19 11 8 16 20 17 19 24 28 30 31 31 32 35 34 32 32 31 32 36 39 40 40 38 37 36 35 35 36 35 33 32 29 28 30 29 25 22 22 25 26 25 24 21 17 14 14 14 15 15 14 14 21 23 13 11 21 23 22 22 18 15 15 17 18 18 17 16 15 15 15
53 52 48 45 45 45 46 46 43 38 36 34 32 30 27 25 24 16 8 14 19 17 17 17 21 23 22 25 28 30 32 32 32 33 32 32 33 36 38 37 35 34 34 36 36 37 37 36 35 32 31 31 28 25 23 23 24 23 21 19 16 14 14 14 14 14 10 10 15 22 27 19 9 12 19 21 17 11 12 15 16 18 16 14 13 12 13 14
50 51 50 49 49 47 48 47 43 39 37 35 33 30 27 26 24 15 12 26 25 16 18 20 22 23 21 21 23 24 28 30 31 33 34 34 33 34 35 35 33 30 31 35 35 36 37 36 36 35 34 32 30 27 26 24 24 22 20 17 13 9 9 10 10 10 7 6 9 16 22 21 14 9 9 12 11 9 12 15 15 14 13 12 10 11 13 15
47 47 48 50 49 49 50 47 42 38 37 37 33 31 31 25 23 26 28 28 18 15 23 23 21 22 20 21 22 21 24 27 30 32 34 34 35 36 34 33 33 27 25 32 35 34 35 36 35 34 34 33 31 28 25 24 24 22 20 18 13 6 4 6 5 5 8 7 7 11 13 16 21 20 13 10 10 12 15 16 16 14 12 10 9 12 15 17
45 45 46 48 49 50 50 46 42 38 38 38 32 33 34 21 23 46 49 30 11 9 17 20 22 23 21 24 25 24 26 28 30 31 33 35 35 36 34 32 33 28 22 23 27 28 26 28 32 34 35 35 34 32 30 28 26 26 25 23 17 7 3 5 4 3 6 8 11 13 10 10 18 21 19 17 15 16 20 19 16 15 13 10 11 13 16 18
44 43 44 47 48 48 48 45 42 39 38 38 35 36 34 25 36 53 52 43 27 13 10 14 21 25 25 28 28 28 30 31 32 32 32 34 35 36 36 35 34 33 29 22 20 21 17 16 23 28 28 29 32 34 34 30 26 25 28 27 22 15 8 4 4 3 2 1 7 12 8 7 8 7 11 19 20 20 23 20 17 18 14 11 13 13 16 18
46 44 43 44 46 46 47 45 42 40 39 39 38 40 38 41 53 50 44 48 42 27 18 14 19 26 29 31 30 30 31 31 31 32 32 34 36 37 37 37 36 35 33 26 20 21 21 21 24 23 21 22 24 28 32 30 24 21 26 28 26 26 20 8 4 5 1 2 5 11 10 10 10 6 6 15 21 24 26 22 20 18 14 12 12 12 14 16
47 45 45 47 49 47 45 44 42 40 41 40 41 46 50 56 58 48 42 46 47 43 34 22 20 27 31 33 32 31 30 30 30 31 33 35 37 39 38 36 34 34 33 29 24 21 18 20 24 23 21 21 21 23 27 29 26 22 27 32 31 31 27 14 6 6 6 6 6 11 13 15 15 14 12 15 18 23 26 23 20 17 14 12 10 10 12 15
47 46 47 52 55 49 44 44 44 40 39 42 46 51 59 63 59 53 48 44 45 47 43 34 31 31 31 32 34 32 30 31 32 32 33 33 32 37 39 35 34 33 31 29 30 27 20 18 20 20 21 22 24 24 25 30 31 27 29 33 31 26 25 18 7 3 5 6 5 11 16 16 15 14 15 20 21 23 25 21 18 15 12 10 9 9 12 16
50 49 47 52 55 50 46 46 46 42 39 44 51 55 61 64 64 61 54 47 43 41 42 42 40 36 34 34 34 34 32 33 35 34 34 32 29 31 33 32 33 33 29 28 31 31 27 20 18 20 20 21 24 25 25 30 33 32 30 29 26 18 15 16 11 3 5 6 4 8 15 18 20 19 18 20 21 22 22 19 15 13 10 9 9 11 14 17
50 53 52 52 52 49 48 49 47 43 42 48 54 59 64 66 66 62 57 52 46 39 41 44 42 37 36 36 35 35 35 37 38 36 35 34 33 33 31 27 26 26 26 29 33 34 31 22 15 19 23 22 25 29 31 33 35 37 33 27 26 21 13 16 18 9 4 5 5 5 7 12 20 23 20 18 18 19 19 16 13 11 10 11 11 13 15 16
50 53 57 54 52 52 51 50 48 45 48 55 59 63 66 64 63 61 58 55 49 44 44 44 40 38 37 36 36 35 36 39 41 39 38 37 36 36 33 28 26 25 22 26 32 35 34 28 20 21 24 25 29 33 36 37 37 39 38 33 32 29 18 15 22 21 11 4 3 4 5 6 11 13 13 14 16 18 18 13 10 11 12 12 12 12 14 15
51 53 55 52 51 56 53 49 50 49 52 58 63 66 65 61 58 58 57 54 50 47 47 43 40 41 40 39 38 37 36 38 41 41 42 43 41 38 35 31 29 27 24 28 34 34 35 36 31 27 28 31 35 36 35 37 38 39 41 42 40 39 31 16 13 22 21 12 7 5 4 3 6 11 14 19 22 18 14 12 13 14 13 13 12 13 14 16
47 53 56 51 50 56 56 53 53 52 54 62 65 65 63 59 56 54 55 54 52 50 49 47 45 44 43 44 43 40 38 38 41 42 43 45 45 41 38 34 29 28 27 28 31 32 34 37 34 32 35 36 36 35 33 35 38 39 41 43 42 44 44 28 12 15 22 23 18 8 6 5 10 17 21 22 22 15 14 15 14 14 14 14 14 14 16 17
39 47 55 55 51 53 55 56 55 54 56 62 65 62 61 61 59 56 55 54 54 53 51 51 50 47 45 45 43 41 40 39 41 45 45 44 45 42 40 38 34 31 29 29 30 29 32 36 33 29 31 31 32 34 34 32 35 40 43 45 44 45 46 39 27 19 18 24 20 7 5 9 14 19 19 17 16 13 13 13 13 14 15 15 16 17 17 19
38 43 51 56 57 56 56 57 57 58 60 62 62 61 60 61 59 59 59 57 55 54 53 53 54 51 49 47 45 44 43 40 41 45 45 44 45 42 40 40 39 37 37 37 36 33 33 37 31 18 12 15 19 22 27 32 37 42 46 46 45 45 42 41 38 26 18 24 24 13 8 10 16 18 17 14 14 13 13 15 17 19 19 18 19 20 20 19
42 42 42 45 53 58 59 60 60 61 64 62 61 62 62 60 59 60 61 59 57 56 54 54 54 53 50 49 48 48 48 46 43 41 41 43 45 43 41 40 41 42 42 41 37 34 34 38 36 25 14 11 14 17 28 42 46 45 47 47 46 46 45 44 40 29 20 21 26 25 17 10 13 17 16 15 15 16 20 23 24 25 24 23 24 24 22 20
42 41 39 38 45 51 55 57 59 61 63 63 62 63 64 63 62 61 59 57 58 57 55 54 53 51 49 50 51 51 51 50 47 44 44 43 42 43 42 41 41 43 43 41 39 37 35 37 42 43 37 34 33 32 36 42 45 47 50 49 48 47 48 46 40 34 28 18 24 37 31 19 20 21 19 22 23 23 27 29 29 28 27 28 29 25 22 21
40 42 44 43 46 48 49 53 58 61 63 64 64 63 65 65 62 57 56 58 59 57 54 54 54 53 53 53 52 51 51 50 50 51 51 48 45 43 41 41 42 43 44 44 43 41 38 38 44 48 48 48 46 39 33 31 35 42 48 50 50 47 47 49 46 45 39 25 26 40 36 31 35 30 26 30 29 27 31 32 32 31 30 31 28 25 26 28
42 43 44 44 47 51 51 51 55 60 61 61 63 61 60 63 63 58 57 58 59 56 53 53 57 60 60 57 53 50 49 48 50 54 54 52 50 45 41 40 41 43 45 45 44 42 41 43 46 47 48 51 49 45 38 30 27 29 33 40 46 46 48 52 51 50 45 37 38 41 35 35 39 33 30 32 29 30 33 34 35 35 34 34 31 31 34 34
43 46 46 45 46 51 54 51 48 53 58 58 60 60 57 58 62 63 60 55 54 56 56 56 59 61 60 57 55 52 51 50 52 55 55 53 52 50 47 44 43 44 44 45 45 43 42 46 46 44 45 49 50 50 46 35 28 27 27 30 36 40 45 48 48 48 47 46 48 43 35 38 39 32 31 31 30 34 36 37 39 38 37 36 36 37 38 36
41 45 46 47 47 47 53 52 45 45 54 57 56 58 59 58 60 61 61 58 57 56 57 60 63 61 58 57 56 56 58 59 58 57 55 54 54 54 53 52 50 48 45 45 46 45 44 45 45 41 40 42 46 48 45 38 32 30 30 31 34 36 39 41 42 44 47 50 49 44 41 44 43 36 34 34 36 38 39 40 42 40 39 40 40 40 39 36
41 44 44 46 47 45 46 50 46 43 48 54 56 56 58 59 60 59 57 59 60 58 57 61 63 60 57 56 56 59 62 63 60 57 55 55 54 53 53 55 54 50 46 44 45 47 47 47 46 41 35 38 44 41 40 41 35 32 39 44 42 39 38 39 40 40 44 46 43 42 44 45 42 39 38 39 39 39 40 41 42 41 42 43 42 40 37 36
42 44 44 43 45 44 42 45 47 44 45 50 54 55 55 55 57 56 52 53 57 58 57 58 57 56 55 55 57 60 60 57 56 55 53 53 52 49 48 50 50 48 46 45 45 48 50 50 51 43 33 36 41 38 39 37 25 30 50 55 48 46 42 39 41 41 42 42 40 41 45 43 40 40 40 39 38 38 39 39 40 42 43 43 41 38 35 35
Wind_Direction
191 191 190 191 191 191 192 193 194 192 189 186 182 179 177 179 181 184 188 191 194 197 200 204 210 216 220 226 231 233 232 228 228 228 229 227 226 227 225 222 224 225 225 221 219 220 220 221 222 222 224 227 231 228 226 223 220 214 207 203 201 205 208 212 210 203 208 210 208 213 221 235 248 258 265 272 276 279 281 280 283 287 289 292 286 277 274 279
201 201 201 201 202 202 201 200 197 191 187 184 182 182 183 185 188 192 197 200 203 206 211 216 221 224 228 231 235 237 234 230 226 226 227 225 225 228 228 223 219 218 217 217 218 221 224 225 224 222 222 224 225 216 211 208 204 205 202 201 205 205 208 213 219 223 223 219 221 227 235 246 253 260 267 273 276 278 278 280 285 291 295 297 292 286 285 286
211 210 210 210 209 206 203 199 194 189 187 187 187 188 189 192 195 200 205 210 213 216 222 227 232 234 234 236 237 240 239 234 227 225 225 221 222 223 219 214 213 216 216 216 219 221 225 229 227 221 216 214 210 204 202 200 200 207 208 212 220 217 217 223 229 235 235 234 238 243 248 252 256 261 266 268 271 274 275 279 285 291 295 296 294 295 298 299
215 214 212 210 207 203 199 196 195 193 192 192 193 194 195 197 201 207 212 218 221 224 230 234 238 239 240 239 238 240 239 241 234 224 222 219 218 214 207 209 210 212 210 210 212 214 217 219 219 212 205 203 201 201 205 211 218 222 219 225 232 233 237 238 239 239 236 240 245 250 255 257 259 262 263 262 266 272 275 277 282 288 290 288 289 293 298 299
215 213 209 207 204 202 200 200 199 199 198 197 198 200 201 204 207 213 217 222 227 230 234 238 241 241 243 240 238 238 236 246 240 223 221 218 210 207 209 211 209 208 205 203 205 205 208 207 209 207 204 204 204 213 224 230 236 239 235 235 236 240 249 251 251 248 243 244 247 253 258 260 263 263 261 262 267 272 273 276 280 282 278 275 278 283 289 293
214 212 208 206 205 204 205 205 205 205 204 202 204 206 207 209 213 218 222 227 232 236 241 244 245 245 246 243 239 236 229 234 235 223 220 211 207 212 215 213 210 208 204 202 207 206 209 214 218 220 221 221 221 229 238 242 245 248 246 244 244 245 251 256 257 256 253 251 251 255 258 261 264 263 263 266 270 271 272 274 275 272 267 267 271 277 284 290
216 213 210 209 209 209 210 210 210 210 210 209 210 212 214 216 219 223 228 234 239 243 247 249 251 250 250 246 241 235 227 225 228 221 212 208 216 221 216 215 213 210 208 209 213 217 222 228 234 238 238 238 238 241 246 250 251 252 251 250 253 252 252 255 257 258 259 257 257 257 259 263 263 262 265 269 270 270 270 269 267 265 262 263 268 275 282 287
220 217 215 214 214 213 214 214 215 215 216 216 216 217 219 222 224 229 234 239 244 248 252 255 256 256 253 248 241 233 228 229 230 224 219 222 227 223 218 221 218 217 221 225 228 232 237 240 245 249 252 253 252 251 253 256 257 255 256 257 259 259 256 254 254 256 259 259 260 260 262 263 261 262 265 267 269 269 266 262 260 258 257 260 266 272 278 284
223 222 220 219 218 217 217 217 218 219 220 221 221 222 224 226 229 233 238 242 246 251 255 259 260 260 256 250 243 235 231 233 234 231 230 230 229 225 225 225 225 229 233 239 243 245 249 252 255 257 260 261 260 259 257 259 260 259 260 261 261 261 260 257 255 256 258 259 259 261 262 260 259 262 265 265 266 265 264 261 257 254 253 258 264 270 277 286
225 224 224 223 222 221 220 220 220 221 223 224 226 227 229 231 234 237 241 244 248 252 256 259 260 260 256 251 244 238 237 236 236 236 233 232 232 231 232 232 235 239 243 247 250 252 256 258 260 262 265 266 266 265 262 260 261 262 262 262 262 262 261 262 262 261 260 260 259 259 259 259 261 263 264 264 262 261 263 262 259 256 256 259 265 271 277 287
228 226 225 225 224 223 223 222 222 223 225 227 229 231 233 236 238 241 245 248 251 254 257 259 259 258 255 251 245 241 240 238 236 237 236 235 235 234 235 238 242 246 250 253 255 257 258 260 263 265 267 268 269 270 269 266 264 265 264 264 263 264 264 263 263 263 263 262 261 259 259 261 262 263 263 262 261 262 264 263 260 260 262 265 269 272 277 287
232 230 228 227 226 226 225 225 224 225 226 228 231 234 236 239 242 245 249 252 254 257 259 260 259 259 256 251 246 242 241 239 238 237 238 237 236 237 239 242 247 251 255 258 260 261 262 264 266 266 267 269 271 273 273 270 270 270 269 268 266 266 267 265 264 263 263 264 262 262 265 266 264 265 264 259 259 263 264 262 261 261 264 268 271 274 280 288
234 234 232 230 229 228 227 227 227 228 228 230 233 235 238 241 245 248 251 255 257 259 260 261 261 261 258 253 247 243 240 239 240 239 238 238 237 239 242 246 251 254 258 261 263 265 266 267 267 267 268 269 270 270 271 273 274 274 273 271 271 272 272 268 265 264 262 262 261 262 264 264 265 264 259 257 259 262 262 261 261 261 264 268 271 275 282 288
235 236 234 233 232 231 230 229 229 230 230 232 234 236 239 242 246 250 254 257 259 261 262 263 264 263 260 255 248 243 239 238 239 240 239 239 240 242 245 250 254 257 261 263 265 267 268 268 268 268 268 268 269 269 271 272 272 273 275 274 274 275 275 271 266 263 261 259 257 257 255 258 265 265 259 261 264 264 261 259 258 260 262 265 269 275 281 285
237 237 237 236 234 233 232 231 231 231 232 234 235 237 239 243 246 250 254 257 260 262 264 264 265 265 262 257 250 244 239 238 239 239 240 241 243 245 248 251 255 259 262 264 265 266 267 267 267 267 268 268 268 268 269 272 272 271 272 274 274 273 273 275 270 266 263 259 256 256 256 259 263 261 259 263 267 267 263 259 258 258 261 263 267 273 277 280
237 238 239 239 236 235 234 233 232 232 234 235 236 237 239 242 245 249 253 257 259 262 264 265 265 264 262 258 253 247 241 239 239 239 241 242 244 246 250 253 257 260 262 263 264 265 265 265 265 265 266 266 266 266 269 271 270 270 270 271 274 273 271 272 270 267 264 261 259 257 256 258 260 260 262 266 270 270 265 259 257 257 259 262 266 271 274 279
236 237 239 240 239 237 236 235 233 233 234 236 237 238 239 241 244 247 251 255 258 261 263 264 264 263 262 258 253 249 244 242 241 241 242 243 245 248 250 253 256 257 259 260 260 261 261 261 262 262 263 263 262 262 260 262 268 275 278 273 271 269 266 266 266 266 265 262 262 260 257 258 262 265 267 268 270 270 266 261 258 257 259 262 265 270 274 278
237 237 238 239 240 239 237 237 235 235 236 237 238 238 240 241 244 247 250 253 256 259 261 263 263 261 260 258 254 250 245 243 242 242 243 243 245 247 249 251 252 254 256 257 257 258 258 259 258 258 258 256 257 256 252 260 277 284 281 274 270 268 265 264 265 267 267 264 264 264 264 265 267 268 269 271 272 270 267 264 261 261 261 263 266 270 275 277
237 237 237 238 239 239 238 238 237 237 238 238 239 239 240 241 243 246 249 252 255 257 260 262 259 257 257 257 255 250 247 244 244 244 244 245 246 247 249 250 252 254 255 255 256 255 255 255 253 253 257 259 263 265 266 275 281 276 272 268 267 267 268 267 266 268 269 268 267 266 268 271 270 269 271 272 273 270 267 267 266 265 265 265 267 271 273 274
237 237 237 238 238 239 239 238 238 239 240 240 240 240 240 241 244 247 250 253 255 257 258 259 256 253 253 253 251 249 249 247 246 245 244 243 244 246 246 248 250 251 252 253 253 254 255 253 253 257 262 267 271 273 274 274 270 266 265 263 264 265 266 269 270 270 272 272 271 271 271 271 269 269 271 270 270 270 269 269 268 266 266 265 267 269 269 266
237 237 237 238 238 239 239 240 240 240 241 241 240 240 240 241 244 249 252 254 255 256 257 257 256 253 251 250 250 249 250 251 249 246 245 244 244 246 247 249 251 252 253 254 254 256 254 252 257 263 266 268 269 269 269 267 265 263 262 261 263 263 265 271 274 275 276 275 274 276 274 272 271 270 270 268 268 269 269 268 267 264 262 262 262 261 260 257
237 237 237 237 238 238 239 241 241 241 242 242 240 240 241 241 245 250 255 257 256 255 256 256 254 254 252 251 250 250 251 251 251 249 249 249 250 251 253 252 253 254 254 252 252 254 252 254 262 266 266 267 266 266 265 264 263 260 258 259 260 264 269 275 277 279 279 278 277 278 276 274 273 270 267 267 267 266 266 264 262 260 258 257 256 253 251 247
238 237 237 237 238 239 240 241 242 242 242 242 241 241 241 242 246 251 256 260 259 256 255 255 254 253 251 250 250 250 251 250 250 250 249 249 251 252 253 253 253 253 251 251 252 252 253 259 266 265 264 265 264 262 260 258 258 256 256 256 260 267 272 276 280 283 282 279 277 279 280 277 274 270 267 265 264 263 261 259 256 256 256 254 250 247 245 240
238 238 238 237 238 239 240 241 242 241 242 242 241 240 241 243 247 252 257 262 263 258 255 255 254 252 250 250 250 249 250 249 247 247 247 248 250 250 251 253 253 253 252 253 255 255 257 262 264 261 260 260 260 259 256 254 256 258 257 257 262 270 274 274 277 281 283 280 278 281 285 282 278 276 270 262 258 256 254 252 253 252 250 247 243 242 238 235
238 238 238 238 238 239 239 240 240 240 240 241 240 239 241 244 248 254 259 265 266 261 256 254 253 252 250 248 247 248 250 249 245 245 246 247 248 249 250 251 250 252 254 254 255 256 257 260 260 259 259 259 260 260 258 257 258 260 261 261 265 270 273 272 272 276 279 279 280 281 281 283 283 277 265 252 243 243 246 248 249 247 243 239 238 237 235 236
238 238 237 237 237 238 239 239 239 238 238 237 237 237 239 244 249 254 260 269 270 264 259 256 253 251 247 244 244 245 247 248 244 243 245 245 246 247 248 249 249 251 253 254 254 255 256 258 258 258 259 260 260 260 259 257 256 259 263 265 267 268 268 270 270 269 265 267 279 276 255 267 284 263 236 226 226 231 240 242 238 237 235 234 235 235 238 242
238 237 237 236 236 237 238 238 237 236 235 232 233 234 237 243 248 253 261 273 272 266 261 255 251 248 246 244 242 238 240 246 243 241 243 243 244 244 245 247 248 249 250 249 247 252 257 258 258 258 259 259 258 259 261 259 255 258 264 268 268 268 267 267 264 257 254 259 271 269 258 262 271 259 241 235 248 254 250 240 232 230 230 230 232 235 240 246
239 238 236 236 235 236 237 238 236 233 231 228 229 232 235 240 245 249 253 264 266 265 260 250 246 247 245 242 240 234 237 244 243 241 242 241 242 243 243 246 248 249 251 247 246 254 260 260 261 261 259 258 258 261 263 259 256 257 263 267 266 266 265 258 250 248 258 263 262 259 254 251 263 263 262 258 258 260 254 242 234 230 230 231 232 236 240 246
239 239 237 236 235 234 235 235 233 229 227 225 226 230 232 235 239 234 230 243 252 254 250 240 239 241 239 237 236 235 237 240 240 242 242 240 241 241 242 245 247 248 249 248 248 254 259 259 260 259 256 256 259 260 257 252 253 256 259 261 260 259 254 244 243 249 259 259 247 250 250 245 259 266 267 266 261 257 247 234 228 225 225 228 230 234 239 243
236 237 237 237 236 234 233 233 231 227 224 223 224 226 227 229 225 210 209 238 241 244 237 228 231 232 230 230 230 232 235 236 237 239 239 238 238 239 241 243 244 245 247 249 249 252 255 257 257 255 254 256 256 254 251 247 248 249 249 248 245 245 243 242 247 249 258 255 245 253 254 245 249 268 264 262 260 247 225 218 218 218 218 221 222 228 239 246
233 233 234 235 235 236 235 233 230 226 223 222 222 222 222 222 213 195 222 238 236 237 228 219 224 229 228 229 229 229 230 232 233 234 235 236 236 236 235 235 235 237 241 244 248 250 251 251 252 253 253 254 252 250 248 245 243 240 236 229 225 230 235 240 240 233 241 245 237 252 248 232 228 242 247 244 235 213 208 205 199 198 201 207 218 237 251 256
233 231 231 233 234 235 235 235 231 225 222 221 219 219 216 207 204 213 226 234 238 238 227 219 219 222 225 228 228 229 229 231 232 232 234 234 235 237 236 235 232 227 231 239 243 247 250 250 251 253 253 251 249 245 241 238 235 231 221 209 205 199 203 219 207 211 238 239 235 239 228 221 233 239 232 216 208 204 200 190 183 187 197 213 246 262 261 260
233 232 231 232 233 233 232 233 230 224 221 219 214 213 208 195 216 227 226 223 225 228 220 216 215 215 217 221 222 225 227 230 231 231 233 233 235 238 239 240 238 232 233 240 239 242 250 255 252 248 249 249 245 238 233 231 227 222 213 202 196 185 189 224 209 238 257 242 233 226 218 232 246 251 243 217 201 196 187 179 186 198 205 240 268 263 254 254
232 232 231 231 232 233 233 232 229 224 220 216 209 203 197 203 231 233 227 222 222 225 213 201 202 206 211 217 220 222 223 226 229 229 232 232 233 236 236 237 237 234 236 238 238 238 242 255 254 249 248 249 245 239 238 239 235 232 224 213 206 202 203 216 207 230 289 225 208 199 201 227 223 241 235 205 193 188 182 181 194 202 216 255 260 247 248 251
233 232 232 232 231 231 231 231 228 223 218 212 203 196 197 216 231 231 227 224 223 224 222 203 196 203 208 214 218 221 221 225 228 228 231 233 235 238 239 237 235 233 232 231 237 240 240 249 257 255 251 247 243 240 238 235 234 235 224 214 214 218 222 236 247 240 299 11 205 195 212 229 209 204 207 194 192 189 188 193 200 209 237 254 244 241 247 248
230 229 228 229 230 230 229 230 227 220 217 212 199 198 211 225 231 230 230 227 224 225 223 214 207 208 209 213 216 218 220 224 227 228 231 234 237 240 241 240 239 238 236 235 239 239 236 248 255 250 244 238 231 233 232 225 223 222 212 211 218 222 224 233 261 259 261 279 237 208 228 239 233 241 227 202 200 195 196 205 213 227 247 244 239 246 245 246
227 225 223 225 227 227 227 230 230 223 217 211 204 210 224 232 233 234 234 230 227 228 226 223 223 220 216 216 217 218 218 222 226 228 230 233 237 241 240 239 240 240 241 242 244 246 245 253 255 244 237 234 226 225 225 223 223 218 213 218 223 223 224 227 243 257 229 255 250 216 226 228 223 234 219 201 202 201 203 213 224 234 240 238 246 248 245 249
229 227 224 223 221 221 223 227 229 226 219 209 209 222 233 235 235 234 232 231 230 228 227 228 230 230 226 222 221 220 219 221 224 225 229 232 238 244 241 239 238 239 241 241 243 248 248 250 254 241 232 232 228 222 217 218 221 222 224 225 218 214 217 212 215 233 207 235 265 216 220 225 219 219 216 206 203 202 206 213 219 226 237 249 256 253 252 253
233 230 229 226 221 217 218 224 228 225 217 207 209 222 231 233 234 232 228 230 231 228 229 232 233 232 231 229 227 224 221 225 228 228 231 234 239 246 245 241 239 237 238 240 243 246 243 240 248 241 231 226 222 217 214 215 216 218 223 224 216 216 215 204 211 219 201 223 250 213 207 228 229 226 226 224 213 200 197 200 213 236 259 266 263 258 254 251
228 227 231 232 225 218 217 223 228 220 211 210 214 223 229 228 229 229 228 228 229 229 232 234 232 231 232 232 231 228 224 229 233 232 234 237 240 246 246 243 242 239 236 237 239 241 238 235 238 235 225 218 218 221 223 224 220 217 217 216 215 215 212 215 224 224 218 225 251 246 239 233 228 222 215 206 191 181 185 201 240 265 272 269 259 252 248 247
227 222 229 234 226 222 218 218 223 218 208 211 219 225 228 226 226 228 229 227 227 230 233 234 234 234 237 237 234 231 226 228 233 233 236 239 240 243 247 248 248 244 236 231 232 235 233 231 230 228 222 220 226 232 232 230 229 227 224 221 219 216 210 209 228 221 219 228 229 241 277 253 192 178 173 171 169 175 199 236 265 270 267 260 249 244 246 247
230 225 230 233 226 223 219 213 218 220 211 211 218 223 225 226 227 228 230 229 228 230 231 234 236 236 240 242 240 237 232 230 233 233 236 240 241 244 250 252 250 248 243 240 243 245 238 230 228 228 230 232 234 235 231 228 228 229 229 228 225 223 215 208 214 215 214 226 232 244 288 256 185 167 162 167 177 201 242 261 269 266 260 256 249 249 253 251
233 234 235 238 232 225 219 213 215 219 216 217 220 221 224 227 229 229 231 231 230 231 231 233 235 235 236 239 240 239 237 236 239 240 240 242 243 245 248 250 250 248 245 242 244 242 231 225 225 228 235 238 237 237 234 231 228 225 228 229 226 225 220 218 229 230 218 221 218 220 263 218 185 181 183 194 212 235 255 258 260 258 255 260 263 262 261 259
227 231 235 240 240 230 219 213 213 215 218 221 220 219 223 229 231 231 232 233 233 233 234 234 235 235 235 235 237 238 238 238 241 244 244 244 245 245 246 248 249 248 245 244 245 240 226 219 217 215 233 239 235 237 234 230 228 227 229 228 225 226 223 223 228 230 235 231 214 207 238 205 192 207 214 221 233 243 256 262 266 268 266 267 272 273 271 267
223 225 228 232 236 234 226 222 222 221 220 220 219 219 222 226 230 234 235 236 237 237 236 238 238 237 236 236 237 239 240 240 242 244 243 243 245 245 244 245 247 247 248 247 246 244 235 225 219 210 204 213 215 222 228 227 225 225 228 227 225 225 222 222 224 223 233 234 215 217 230 212 212 223 221 228 241 254 270 277 276 275 273 273 278 281 276 270
227 228 230 222 221 230 234 231 228 227 225 223 220 221 223 224 228 233 234 235 237 238 237 238 240 238 236 237 238 239 240 240 241 243 244 244 245 245 244 242 242 243 244 244 241 240 235 229 227 225 223 229 231 231 235 234 228 226 228 227 225 224 223 222 220 220 223 223 226 232 231 228 236 232 229 248 260 268 278 282 278 274 275 279 281 278 274 272
226 228 231 222 210 216 228 230 226 226 229 226 222 222 224 225 227 230 231 232 234 236 236 237 239 239 237 236 236 237 238 237 237 239 242 243 244 246 245 241 239 239 240 240 235 231 227 227 231 232 233 238 239 239 242 244 239 235 235 232 228 224 223 221 220 224 225 221 238 242 235 237 247 245 247 260 266 274 281 282 278 276 277 278 276 273 277 280
223 224 227 220 206 203 212 221 224 226 228 225 223 225 225 224 226 227 229 232 233 233 233 234 237 239 239 237 234 233 233 232 233 236 239 240 241 242 241 238 237 236 237 236 229 223 225 232 236 235 236 238 237 238 243 246 245 243 240 238 235 229 225 223 223 227 227 225 240 247 244 247 251 249 253 263 270 277 280 279 276 277 276 273 273 277 282 283
223 225 227 221 211 205 206 212 219 224 226 223 222 224 224 225 228 228 228 229 229 231 232 232 235 237 237 235 233 231 230 230 231 234 235 237 239 240 240 237 236 234 233 234 232 226 225 233 236 235 236 237 234 236 241 242 241 238 234 236 238 236 234 233 232 232 232 235 243 245 246 251 253 252 256 264 270 273 274 275 274 274 272 273 277 281 283 281
228 230 230 226 222 215 210 212 213 217 223 223 221 224 226 226 229 229 228 228 229 231 230 232 236 237 235 233 230 230 235 238 238 238 238 238 238 239 240 240 241 238 232 230 230 227 225 230 234 232 232 234 234 234 236 237 237 236 235 236 237 237 237 236 236 234 233 237 242 242 246 252 254 257 260 265 269 271 272 272 272 272 274 277 281 281 279 278
230 234 235 233 230 225 220 219 217 214 218 220 221 224 227 229 231 231 229 229 231 232 232 235 238 237 235 235 232 234 240 243 242 243 244 243 244 247 246 244 243 241 233 228 227 224 224 227 230 229 229 233 233 231 232 235 237 240 242 240 235 231 230 230 232 232 231 235 239 240 245 250 255 261 266 268 271 272 271 271 272 273 276 277 277 277 277 279
227 231 235 237 237 235 231 228 225 222 220 219 221 225 228 233 236 233 229 230 232 232 234 238 239 236 234 233 234 238 243 242 240 241 243 245 248 251 250 248 247 246 242 237 230 225 225 226 226 225 225 232 234 233 232 235 238 242 242 240 234 230 230 229 231 233 233 235 237 240 247 255 262 267 270 271 271 271 272 273 273 272 272 272 273 275 278 280
Height
3176 3177 3178 3178 3179 3180 3181 3182 3182 3183 3184 3184 3185 3185 3186 3187 3187 3188 3189 3189 3190 3190 3190 3191 3191 3191 3192 3192 3192 3193 3193 3193 3193 3194 3194 3194 3194 3194 3195 3195 3195 3195 3195 3195 3195 3195 3195 3195 3195 3195 3195 3195 3196 3196 3196 3196 3196 3196 3196 3197 3197 3197 3197 3197 3197 3198 3198 3198 3199 3199 3199 3199 3199 3198 3198 3198 3198 3198 3196 3195 3196 3196 3196 3197 3197 3196 3196 3196
3175 3176 3177 3177 3178 3179 3180 3181 3181 3182 3183 3183 3184 3185 3185 3186 3187 3187 3188 3188 3189 3189 3190 3190 3190 3191 3191 3192 3192 3192 3192 3193 3193 3193 3193 3193 3193 3194 3194 3194 3194 3194 3194 3194 3194 3194 3194 3194 3194 3195 3195 3195 3195 3195 3195 3195 3196 3196 3196 3196 3197 3196 3197 3197 3197 3197 3197 3198 3198 3198 3198 3198 3198 3198 3198 3197 3197 3197 3196 3195 3194 3195 3195 3195 3195 3195 3195 3195
3174 3174 3175 3176 3177 3178 3179 3180 3181 3181 3182 3183 3183 3184 3185 3186 3186 3187 3187 3188 3188 3188 3189 3189 3190 3190 3191 3191 3191 3191 3191 3192 3192 3192 3192 3193 3193 3193 3193 3193 3194 3194 3194 3194 3194 3194 3194 3194 3194 3194 3194 3194 3195 3195 3195 3195 3195 3196 3196 3196 3196 3196 3196 3196 3196 3196 3196 3197 3197 3197 3197 3197 3197 3197 3197 3197 3196 3196 3195 3194 3193 3193 3194 3194 3193 3193 3193 3193
3172 3173 3174 3175 3176 3177 3178 3179 3180 3180 3181 3182 3183 3183 3184 3185 3185 3186 3186 3187 3187 3188 3188 3189 3189 3189 3190 3190 3190 3190 3190 3191 3191 3191 3191 3192 3192 3192 3193 3193 3193 3193 3193 3193 3193 3193 3193 3193 3193 3193 3194 3194 3194 3194 3195 3195 3195 3195 3195 3195 3195 3195 3195 3195 3195 3196 3196 3196 3196 3196 3196 3196 3196 3196 3196 3196 3196 3195 3194 3194 3193 3193 3193 3192 3192 3192 3192 3192
3171 3172 3173 3174 3175 3176 3177 3178 3179 3180 3180 3181 3182 3182 3183 3184 3185 3185 3185 3186 3186 3187 3187 3188 3188 3189 3189 3189 3189 3189 3190 3190 3190 3190 3191 3191 3191 3192 3192 3192 3192 3193 3193 3193 3193 3193 3193 3193 3193 3193 3193 3194 3194 3194 3194 3194 3195 3195 3195 3195 3195 3195 3194 3194 3194 3194 3195 3195 3195 3195 3195 3195 3195 3195 3195 3195 3195 3194 3194 3193 3192 3192 3192 3191 3191 3191 3191 3191
3169 3170 3171 3172 3174 3175 3176 3177 3178 3179 3179 3180 3181 3181 3182 3183 3184 3184 3184 3185 3185 3186 3186 3187 3187 3188 3188 3188 3188 3188 3189 3189 3189 3189 3190 3190 3190 3191 3191 3191 3191 3192 3192 3192 3192 3192 3192 3192 3192 3192 3193 3193 3193 3194 3194 3194 3194 3194 3194 3194 3194 3194 3193 3193 3193 3193 3194 3194 3194 3194 3193 3194 3193 3193 3193 3194 3193 3193 3193 3192 3192 3191 3191 3190 3190 3190 3190 3190
3168 3169 3170 3171 3172 3174 3175 3176 3177 3178 3179 3179 3180 3180 3181 3182 3182 3183 3183 3183 3184 3185 3185 3186 3186 3186 3187 3187 3187 3187 3188 3188 3188 3188 3189 3189 3190 3190 3190 3190 3191 3191 3191 3191 3191 3191 3192 3192 3192 3192 3192 3192 3193 3193 3193 3193 3193 3193 3193 3193 3193 3192 3192 3192 3192 3192 3192 3192 3192 3192 3192 3192 3192 3191 3192 3192 3192 3191 3191 3191 3190 3190 3189 3189 3189 3189 3189 3189
3166 3167 3169 3170 3171 3172 3173 3174 3175 3176 3177 3178 3179 3179 3180 3180 3181 3181 3181 3182 3183 3183 3184 3184 3185 3185 3185 3186 3186 3186 3187 3187 3187 3188 3188 3188 3189 3189 3189 3189 3190 3190 3190 3190 3191 3191 3191 3191 3191 3191 3191 3191 3192 3192 3192 3192 3192 3192 3192 3191 3191 3191 3191 3191 3191 3191 3191 3190 3190 3190 3190 3191 3190 3190 3190 3190 3190 3190 3190 3189 3189 3189 3188 3188 3188 3188 3188 3188
3164 3166 3167 3168 3169 3170 3171 3173 3174 3175 3176 3177 3178 3178 3179 3179 3179 3180 3180 3181 3181 3182 3182 3183 3183 3184 3184 3185 3185 3185 3185 3185 3186 3186 3187 3187 3187 3188 3188 3188 3189 3189 3189 3190 3190 3190 3190 3190 3190 3190 3190 3190 3191 3191 3191 3191 3191 3190 3190 3190 3190 3190 3189 3189 3190 3190 3189 3189 3188 3189 3189 3189 3188 3189 3188 3188 3188 3188 3188 3188 3187 3187 3187 3187 3187 3187 3187 3187
3162 3163 3165 3166 3167 3169 3170 3171 3172 3173 3174 3175 3176 3177 3177 3177 3178 3178 3179 3179 3180 3180 3181 3181 3182 3182 3183 3183 3184 3184 3184 3184 3185 3185 3185 3186 3186 3186 3187 3187 3187 3188 3188 3188 3189 3189 3189 3189 3189 3189 3189 3189 3189 3189 3190 3190 3189 3189 3189 3189 3189 3188 3188 3188 3188 3188 3187 3187 3187 3187 3187 3187 3187 3187 3186 3186 3186 3186 3186 3186 3186 3185 3185 3185 3185 3185 3185 3185
3160 3161 3162 3164 3165 3166 3168 3169 3170 3171 3172 3173 3174 3175 3175 3176 3176 3177 3177 3178 3178 3179 3179 3180 3180 3180 3181 3182 3182 3183 3182 3183 3183 3183 3184 3184 3185 3185 3185 3186 3186 3186 3187 3187 3187 3187 3188 3188 3188 3188 3188 3188 3188 3188 3188 3188 3188 3188 3188 3187 3187 3187 3186 3187 3186 3186 3186 3185 3185 3185 3185 3185 3185 3184 3184 3185 3184 3184 3184 3184 3184 3184 3183 3183 3183 3183 3183 3183
3158 3159 3160 3161 3162 3164 3165 3167 3168 3169 3170 3171 3172 3173 3174 3174 3175 3175 3176 3176 3176 3177 3177 3178 3178 3179 3179 3180 3181 3181 3181 3181 3182 3182 3182 3183 3183 3183 3184 3184 3185 3185 3185 3186 3186 3186 3186 3186 3186 3186 3186 3186 3186 3186 3186 3186 3186 3186 3186 3186 3185 3185 3185 3185 3185 3184 3184 3183 3184 3184 3183 3183 3182 3182 3182 3183 3183 3183 3182 3182 3182 3182 3182 3182 3181 3181 3181 3180
3155 3157 3158 3159 3160 3161 3163 3164 3166 3167 3168 3169 3170 3171 3171 3172 3173 3173 3174 3174 3175 3175 3175 3176 3176 3177 3177 3178 3179 3179 3179 3179 3180 3180 3181 3181 3181 3182 3182 3183 3183 3183 3184 3184 3184 3184 3184 3184 3184 3184 3185 3185 3185 3185 3184 3184 3184 3184 3184 3183 3183 3184 3183 3183 3183 3183 3182 3182 3182 3182 3182 3181 3180 3181 3181 3180 3181 3181 3180 3180 3180 3179 3179 3180 3179 3179 3178 3178
3153 3154 3155 3157 3158 3159 3160 3162 3163 3164 3165 3166 3167 3168 3169 3170 3171 3171 3172 3172 3173 3173 3173 3174 3174 3174 3175 3175 3176 3177 3177 3177 3178 3178 3179 3179 3180 3180 3180 3181 3181 3181 3182 3182 3182 3182 3182 3182 3182 3182 3183 3183 3183 3183 3183 3183 3183 3182 3182 3181 3181 3182 3181 3181 3181 3181 3181 3180 3180 3180 3180 3179 3178 3179 3179 3178 3179 3178 3178 3178 3177 3177 3177 3177 3177 3177 3176 3176
3150 3151 3152 3154 3155 3156 3157 3159 3160 3162 3163 3164 3165 3166 3167 3168 3168 3169 3170 3170 3171 3171 3171 3171 3172 3172 3172 3173 3174 3174 3175 3175 3176 3176 3176 3177 3177 3178 3178 3179 3179 3179 3179 3180 3180 3180 3180 3180 3180 3180 3181 3181 3181 3181 3181 3181 3181 3180 3180 3179 3179 3180 3179 3178 3179 3179 3179 3179 3178 3178 3178 3177 3176 3176 3177 3176 3176 3176 3176 3176 3175 3175 3175 3175 3175 3175 3175 3174
3146 3148 3149 3150 3152 3153 3155 3156 3157 3159 3160 3161 3162 3163 3164 3165 3166 3167 3167 3168 3168 3168 3169 3169 3169 3170 3170 3170 3171 3172 3172 3173 3173 3174 3174 3175 3175 3176 3176 3176 3177 3177 3177 3177 3177 3178 3178 3178 3178 3178 3179 3179 3179 3180 3180 3179 3178 3178 3179 3177 3177 3177 3177 3176 3176 3176 3177 3177 3177 3177 3176 3174 3174 3174 3174 3174 3174 3174 3174 3173 3172 3172 3173 3173 3173 3173 3172 3172
3142 3144 3146 3147 3149 3150 3152 3153 3154 3156 3157 3158 3159 3160 3161 3162 3163 3164 3164 3165 3165 3166 3166 3166 3167 3167 3167 3167 3168 3169 3170 3170 3171 3171 3172 3172 3173 3173 3174 3174 3174 3175 3175 3175 3175 3175 3176 3176 3176 3176 3177 3177 3177 3178 3178 3178 3176 3176 3176 3175 3175 3175 3175 3175 3174 3174 3175 3175 3175 3174 3173 3172 3171 3171 3171 3171 3171 3171 3170 3170 3170 3170 3170 3170 3170 3170 3170 3170
3138 3141 3142 3144 3146 3147 3149 3150 3152 3153 3154 3155 3156 3157 3158 3159 3160 3160 3161 3162 3163 3163 3163 3163 3165 3164 3164 3164 3166 3167 3167 3168 3168 3169 3169 3170 3170 3171 3171 3172 3172 3172 3172 3172 3173 3173 3173 3173 3174 3174 3174 3174 3174 3175 3176 3175 3175 3175 3174 3173 3173 3172 3172 3172 3172 3172 3173 3173 3172 3171 3170 3169 3169 3168 3168 3168 3167 3167 3167 3166 3166 3166 3167 3167 3167 3167 3167 3168
3134 3136 3139 3141 3142 3144 3146 3147 3149 3150 3151 3152 3153 3154 3155 3156 3157 3157 3158 3159 3160 3160 3161 3161 3161 3161 3161 3162 3163 3164 3164 3165 3166 3166 3167 3167 3168 3168 3169 3169 3169 3170 3170 3170 3170 3171 3171 3171 3171 3171 3171 3171 3172 3173 3174 3174 3174 3173 3172 3171 3171 3170 3170 3170 3170 3170 3170 3170 3169 3168 3167 3166 3166 3165 3164 3164 3163 3163 3163 3163 3163 3163 3163 3164 3164 3164 3165 3165
3130 3133 3135 3137 3139 3140 3142 3144 3146 3147 3147 3148 3150 3151 3152 3153 3154 3154 3155 3155 3156 3157 3157 3157 3157 3158 3158 3159 3160 3161 3161 3162 3163 3164 3164 3165 3165 3166 3166 3166 3167 3167 3167 3167 3168 3168 3169 3168 3167 3168 3168 3169 3171 3171 3172 3171 3171 3170 3170 3169 3168 3168 3167 3167 3168 3168 3168 3167 3165 3165 3164 3163 3163 3162 3161 3160 3159 3159 3159 3159 3159 3160 3160 3160 3161 3162 3162 3162
3126 3128 3130 3133 3135 3137 3139 3140 3142 3143 3144 3145 3146 3147 3148 3150 3151 3151 3152 3152 3153 3154 3153 3154 3154 3154 3155 3156 3157 3157 3159 3159 3160 3161 3162 3162 3163 3163 3163 3164 3164 3164 3164 3165 3165 3165 3165 3163 3164 3166 3167 3168 3169 3169 3168 3168 3168 3168 3167 3167 3166 3166 3165 3165 3165 3165 3165 3164 3162 3161 3160 3158 3159 3159 3158 3157 3156 3155 3155 3155 3156 3156 3157 3157 3158 3158 3159 3159
3122 3124 3126 3129 3130 3133 3135 3136 3138 3140 3140 3141 3143 3144 3146 3148 3148 3148 3149 3148 3148 3150 3149 3149 3149 3150 3152 3153 3153 3154 3155 3156 3157 3158 3159 3160 3160 3160 3161 3161 3161 3161 3162 3162 3162 3162 3161 3160 3162 3165 3165 3165 3165 3165 3165 3165 3165 3165 3164 3164 3163 3163 3163 3163 3163 3162 3162 3161 3159 3158 3156 3154 3155 3155 3154 3153 3153 3152 3152 3151 3152 3152 3153 3154 3155 3155 3156 3156
3117 3119 3122 3124 3126 3129 3130 3132 3134 3135 3136 3137 3140 3142 3144 3145 3145 3146 3146 3144 3143 3145 3145 3145 3145 3146 3148 3148 3149 3151 3151 3152 3154 3154 3156 3157 3157 3158 3157 3158 3158 3158 3158 3159 3159 3159 3157 3157 3160 3162 3162 3162 3162 3162 3162 3162 3162 3161 3161 3161 3160 3160 3162 3162 3161 3160 3160 3159 3157 3156 3153 3150 3150 3150 3150 3149 3148 3148 3148 3148 3148 3148 3149 3150 3151 3152 3153 3154
3113 3115 3118 3119 3122 3123 3126 3128 3129 3131 3133 3135 3138 3140 3141 3142 3143 3143 3143 3140 3137 3138 3140 3140 3140 3141 3143 3145 3146 3146 3147 3149 3150 3150 3152 3153 3154 3154 3153 3154 3155 3153 3154 3155 3156 3155 3154 3155 3158 3159 3159 3159 3159 3159 3159 3159 3158 3158 3158 3158 3158 3159 3160 3160 3159 3158 3157 3155 3154 3154 3151 3145 3145 3146 3145 3145 3144 3144 3144 3144 3145 3145 3146 3147 3148 3149 3150 3151
3109 3111 3113 3115 3117 3119 3122 3122 3123 3128 3130 3132 3135 3137 3138 3139 3140 3140 3141 3137 3130 3130 3135 3135 3135 3136 3138 3140 3140 3142 3144 3144 3145 3147 3148 3150 3150 3150 3150 3151 3150 3149 3151 3153 3152 3151 3150 3152 3154 3155 3155 3155 3155 3155 3156 3157 3156 3155 3155 3155 3156 3157 3157 3157 3157 3156 3155 3153 3151 3153 3151 3143 3141 3142 3141 3141 3141 3141 3141 3142 3142 3143 3144 3145 3146 3146 3148 3148
3105 3107 3109 3111 3112 3115 3116 3116 3120 3125 3126 3130 3132 3133 3135 3136 3138 3138 3139 3136 3124 3121 3128 3130 3130 3130 3131 3134 3135 3139 3140 3137 3140 3144 3144 3145 3146 3146 3146 3145 3145 3146 3147 3149 3149 3146 3146 3149 3150 3151 3151 3152 3152 3151 3153 3154 3153 3152 3151 3152 3154 3154 3154 3154 3154 3155 3153 3150 3149 3151 3150 3143 3140 3141 3140 3139 3139 3139 3140 3140 3140 3141 3142 3142 3143 3144 3145 3146
3100 3102 3104 3105 3107 3109 3110 3112 3118 3120 3122 3127 3128 3130 3132 3133 3136 3136 3138 3136 3118 3112 3120 3123 3123 3123 3125 3128 3131 3135 3133 3130 3136 3139 3139 3141 3141 3142 3141 3140 3141 3142 3144 3146 3144 3141 3142 3145 3147 3148 3148 3148 3147 3147 3149 3151 3151 3148 3148 3150 3151 3151 3152 3152 3152 3152 3150 3149 3147 3147 3148 3145 3140 3138 3139 3139 3138 3138 3138 3139 3139 3139 3140 3140 3141 3142 3143 3144
3095 3097 3099 3100 3102 3104 3106 3109 3113 3116 3120 3123 3123 3127 3129 3130 3134 3134 3138 3134 3113 3105 3112 3115 3116 3118 3120 3124 3126 3128 3126 3127 3132 3133 3134 3137 3136 3137 3137 3136 3138 3139 3140 3142 3140 3138 3140 3142 3143 3145 3145 3144 3143 3144 3146 3148 3147 3145 3146 3148 3148 3149 3149 3149 3149 3149 3148 3147 3145 3143 3145 3144 3137 3134 3137 3136 3135 3135 3136 3136 3137 3137 3138 3138 3139 3140 3141 3141
3090 3092 3094 3096 3098 3100 3102 3104 3107 3112 3116 3118 3120 3123 3125 3128 3130 3132 3137 3128 3106 3102 3108 3109 3112 3114 3115 3119 3121 3122 3123 3125 3128 3128 3130 3132 3131 3132 3132 3132 3135 3135 3137 3137 3136 3136 3137 3138 3140 3141 3140 3139 3140 3142 3144 3145 3144 3143 3144 3145 3146 3146 3146 3147 3147 3146 3147 3144 3140 3139 3141 3141 3133 3130 3133 3133 3131 3133 3133 3133 3134 3134 3135 3136 3137 3138 3139 3139
3084 3087 3090 3091 3092 3094 3096 3098 3103 3108 3111 3114 3116 3119 3122 3124 3126 3131 3132 3115 3100 3100 3103 3106 3109 3110 3112 3115 3116 3118 3119 3121 3123 3124 3126 3126 3127 3128 3128 3130 3132 3132 3133 3133 3132 3133 3134 3135 3136 3136 3136 3136 3138 3139 3140 3141 3141 3141 3142 3143 3144 3145 3145 3146 3144 3145 3145 3138 3133 3135 3137 3138 3133 3127 3129 3129 3129 3130 3130 3130 3131 3132 3134 3135 3136 3137 3137 3138
3079 3082 3084 3085 3087 3090 3091 3094 3099 3104 3107 3110 3112 3115 3117 3119 3123 3126 3115 3100 3097 3099 3098 3102 3105 3106 3110 3112 3113 3115 3116 3117 3119 3120 3121 3122 3123 3123 3124 3126 3127 3129 3129 3128 3128 3129 3129 3130 3131 3131 3132 3133 3134 3135 3136 3137 3137 3138 3139 3141 3143 3143 3144 3144 3143 3144 3142 3132 3129 3132 3132 3134 3131 3124 3125 3126 3126 3127 3127 3127 3129 3130 3132 3134 3135 3136 3136 3137
3073 3076 3079 3081 3083 3085 3087 3091 3096 3100 3102 3104 3108 3110 3112 3116 3117 3109 3096 3094 3098 3094 3093 3099 3101 3104 3108 3109 3110 3112 3113 3114 3114 3115 3116 3117 3118 3118 3119 3121 3122 3125 3124 3123 3125 3125 3125 3126 3127 3128 3128 3129 3131 3132 3133 3134 3134 3135 3136 3138 3141 3141 3142 3141 3139 3138 3134 3128 3127 3129 3130 3129 3124 3120 3123 3124 3124 3125 3125 3126 3127 3129 3131 3132 3134 3134 3134 3135
3068 3071 3073 3075 3077 3080 3083 3088 3092 3095 3096 3099 3103 3104 3108 3110 3101 3089 3087 3093 3094 3089 3090 3095 3097 3101 3105 3104 3106 3108 3109 3110 3110 3112 3113 3114 3114 3115 3116 3117 3119 3120 3120 3120 3122 3123 3122 3122 3123 3124 3123 3124 3125 3126 3127 3127 3129 3130 3131 3134 3135 3136 3138 3136 3134 3133 3129 3125 3124 3126 3128 3124 3118 3116 3119 3121 3122 3123 3123 3124 3126 3127 3129 3131 3132 3133 3133 3133
3063 3065 3067 3069 3072 3075 3079 3083 3085 3088 3091 3094 3096 3098 3102 3098 3083 3078 3084 3088 3089 3089 3090 3093 3094 3098 3100 3100 3102 3103 3104 3105 3106 3108 3109 3110 3110 3110 3111 3113 3114 3116 3117 3119 3120 3120 3120 3117 3116 3118 3118 3118 3119 3120 3122 3124 3126 3127 3127 3130 3129 3129 3131 3129 3127 3126 3124 3122 3123 3125 3125 3118 3113 3114 3114 3116 3120 3121 3121 3122 3124 3126 3128 3129 3130 3131 3131 3132
3057 3060 3062 3064 3066 3069 3073 3076 3079 3083 3084 3087 3090 3091 3091 3082 3070 3072 3078 3082 3086 3088 3089 3091 3094 3095 3096 3096 3098 3099 3101 3102 3103 3105 3105 3105 3105 3105 3106 3107 3109 3112 3114 3117 3117 3116 3115 3112 3112 3114 3114 3114 3116 3117 3119 3122 3125 3124 3125 3126 3125 3124 3125 3124 3123 3122 3122 3122 3121 3120 3117 3111 3110 3112 3112 3114 3116 3118 3119 3120 3122 3124 3125 3127 3128 3129 3129 3130
3050 3053 3056 3057 3058 3062 3066 3069 3073 3076 3077 3081 3084 3081 3074 3066 3063 3067 3073 3078 3082 3084 3086 3090 3091 3091 3092 3093 3094 3096 3098 3099 3100 3101 3101 3101 3101 3100 3101 3103 3106 3108 3110 3112 3112 3111 3111 3108 3109 3111 3111 3112 3113 3114 3116 3118 3119 3120 3120 3120 3119 3121 3122 3122 3122 3121 3123 3121 3114 3112 3110 3108 3109 3109 3109 3112 3113 3115 3117 3118 3120 3122 3122 3124 3125 3126 3127 3127
3043 3046 3047 3048 3051 3056 3061 3064 3067 3070 3072 3074 3073 3068 3062 3060 3062 3066 3070 3074 3077 3080 3084 3085 3084 3086 3087 3088 3090 3092 3095 3096 3096 3097 3097 3098 3096 3094 3096 3100 3103 3104 3106 3109 3109 3107 3108 3106 3106 3108 3108 3109 3110 3111 3112 3114 3115 3115 3115 3115 3117 3121 3121 3121 3122 3120 3121 3119 3109 3105 3105 3105 3106 3105 3105 3108 3110 3111 3114 3115 3117 3118 3119 3121 3122 3123 3124 3123
3036 3039 3039 3041 3045 3051 3056 3058 3060 3064 3066 3067 3066 3061 3058 3057 3059 3063 3065 3068 3073 3077 3080 3079 3078 3080 3082 3084 3085 3088 3092 3091 3091 3092 3093 3093 3091 3088 3091 3096 3099 3101 3104 3107 3106 3105 3106 3105 3103 3105 3106 3107 3108 3109 3109 3109 3111 3112 3112 3113 3116 3117 3116 3118 3119 3116 3116 3114 3106 3101 3101 3100 3100 3100 3100 3103 3106 3107 3110 3112 3113 3115 3116 3118 3119 3120 3120 3120
3032 3032 3030 3033 3040 3046 3051 3051 3053 3057 3058 3058 3058 3053 3048 3049 3053 3058 3061 3064 3069 3072 3072 3072 3074 3076 3077 3079 3081 3084 3087 3085 3086 3088 3088 3088 3086 3084 3087 3092 3095 3097 3101 3103 3102 3101 3103 3103 3101 3101 3103 3104 3104 3104 3103 3104 3106 3108 3109 3111 3112 3112 3112 3112 3112 3109 3109 3107 3102 3099 3097 3093 3092 3094 3097 3099 3101 3104 3106 3108 3110 3112 3114 3115 3116 3116 3117 3117
3025 3023 3021 3027 3035 3040 3045 3045 3045 3048 3048 3048 3047 3041 3038 3043 3048 3052 3056 3060 3063 3065 3066 3067 3071 3072 3071 3074 3077 3079 3081 3081 3081 3083 3083 3082 3082 3080 3084 3088 3091 3094 3097 3098 3097 3098 3100 3100 3098 3097 3099 3099 3097 3096 3096 3097 3099 3100 3102 3104 3105 3107 3108 3108 3106 3104 3104 3103 3100 3098 3092 3086 3086 3091 3093 3096 3098 3101 3103 3106 3108 3109 3110 3111 3112 3113 3114 3114
3020 3016 3013 3019 3027 3032 3037 3038 3034 3035 3039 3040 3038 3035 3035 3039 3043 3046 3051 3055 3058 3059 3061 3064 3066 3067 3067 3068 3070 3073 3076 3076 3076 3078 3078 3077 3077 3077 3080 3084 3087 3089 3092 3092 3092 3093 3094 3094 3094 3093 3092 3091 3090 3091 3093 3094 3094 3094 3094 3094 3096 3099 3102 3103 3100 3098 3100 3099 3097 3095 3089 3083 3084 3088 3090 3093 3095 3098 3100 3103 3104 3106 3107 3108 3108 3109 3110 3111
3014 3010 3006 3011 3018 3023 3028 3027 3024 3026 3029 3028 3027 3028 3031 3034 3039 3043 3045 3050 3053 3054 3057 3058 3060 3062 3063 3063 3065 3068 3071 3071 3071 3071 3071 3071 3072 3074 3077 3081 3083 3085 3086 3087 3087 3088 3089 3090 3090 3089 3087 3087 3088 3089 3090 3090 3091 3092 3091 3090 3092 3093 3093 3094 3093 3092 3096 3096 3094 3095 3091 3084 3083 3086 3088 3090 3092 3094 3097 3099 3100 3102 3103 3104 3105 3106 3107 3108
3007 3007 3005 3005 3010 3016 3018 3018 3018 3020 3020 3020 3022 3026 3029 3030 3034 3038 3040 3043 3046 3048 3050 3050 3052 3056 3057 3058 3061 3063 3065 3066 3065 3064 3065 3067 3068 3072 3075 3077 3078 3080 3081 3081 3081 3084 3085 3085 3086 3086 3085 3086 3086 3086 3087 3088 3088 3087 3085 3085 3087 3087 3088 3090 3089 3089 3091 3089 3090 3094 3090 3082 3082 3084 3086 3088 3089 3091 3093 3094 3096 3097 3098 3099 3100 3101 3103 3103
3002 3004 3004 3000 3002 3007 3008 3008 3010 3011 3011 3014 3019 3023 3025 3026 3027 3030 3032 3035 3038 3041 3043 3043 3045 3049 3052 3054 3056 3057 3059 3060 3058 3059 3062 3063 3064 3067 3071 3072 3073 3074 3075 3074 3075 3078 3079 3078 3081 3084 3085 3084 3084 3084 3083 3082 3081 3078 3077 3079 3080 3082 3086 3088 3087 3088 3087 3082 3085 3089 3083 3077 3080 3082 3082 3085 3086 3087 3089 3091 3092 3093 3094 3094 3095 3096 3098 3098
2997 2999 2999 2997 2995 2996 2998 3000 3002 3002 3004 3010 3013 3016 3019 3020 3020 3022 3025 3029 3033 3036 3038 3038 3040 3043 3047 3050 3051 3051 3052 3053 3054 3055 3057 3058 3059 3062 3066 3067 3067 3068 3069 3069 3071 3072 3071 3071 3073 3075 3075 3073 3072 3070 3068 3067 3069 3070 3070 3073 3075 3077 3080 3080 3083 3085 3080 3076 3079 3079 3075 3075 3077 3078 3079 3081 3083 3084 3086 3087 3088 3088 3089 3090 3091 3092 3092 3093
2991 2991 2992 2994 2990 2987 2989 2995 2998 2999 3001 3005 3006 3008 3011 3012 3013 3017 3021 3024 3027 3029 3032 3033 3035 3039 3042 3044 3044 3044 3045 3048 3051 3051 3051 3052 3053 3056 3059 3061 3062 3063 3064 3065 3066 3066 3065 3063 3063 3062 3061 3060 3059 3059 3059 3060 3063 3064 3064 3066 3069 3071 3073 3076 3078 3075 3073 3074 3073 3069 3072 3075 3073 3073 3077 3079 3080 3081 3082 3083 3084 3084 3085 3086 3086 3087 3088 3089
2985 2984 2985 2988 2987 2983 2983 2987 2990 2991 2993 2996 2997 2999 3002 3005 3009 3013 3015 3016 3019 3023 3026 3028 3030 3032 3032 3034 3036 3037 3039 3043 3045 3044 3044 3046 3048 3050 3053 3055 3056 3058 3058 3059 3058 3058 3058 3056 3055 3055 3055 3056 3057 3057 3058 3059 3060 3060 3060 3061 3063 3066 3068 3069 3067 3065 3069 3072 3065 3061 3069 3073 3069 3070 3074 3076 3077 3078 3079 3079 3079 3080 3081 3081 3082 3082 3083 3085
2978 2978 2979 2982 2981 2978 2978 2978 2980 2983 2986 2990 2993 2995 2998 3000 3003 3005 3006 3009 3013 3017 3020 3021 3020 3020 3022 3027 3030 3032 3035 3038 3037 3036 3037 3039 3042 3044 3047 3049 3051 3051 3052 3052 3051 3052 3052 3050 3049 3051 3051 3052 3054 3055 3054 3055 3056 3057 3057 3057 3058 3060 3060 3059 3059 3062 3065 3064 3058 3059 3065 3066 3066 3068 3071 3073 3075 3075 3075 3075 3076 3076 3077 3076 3077 3078 3078 3079
2971 2972 2975 2977 2975 2974 2975 2975 2977 2980 2983 2986 2989 2990 2993 2995 2995 2998 3001 3004 3006 3008 3011 3011 3009 3010 3016 3021 3024 3025 3026 3027 3026 3026 3029 3033 3036 3038 3040 3042 3043 3044 3046 3046 3046 3047 3047 3044 3044 3047 3047 3048 3050 3050 3050 3052 3052 3052 3053 3053 3054 3054 3053 3054 3057 3060 3061 3058 3056 3059 3060 3059 3062 3065 3067 3070 3071 3070 3071 3072 3072 3072 3072 3072 3072 3072 3073 3073
2966 2966 2969 2971 2971 2973 2973 2973 2975 2977 2979 2981 2983 2984 2987 2988 2989 2992 2996 2996 2997 2999 3002 3002 3002 3006 3010 3014 3016 3016 3015 3015 3016 3020 3024 3027 3029 3031 3032 3033 3035 3037 3039 3040 3040 3041 3042 3040 3040 3043 3044 3043 3043 3044 3047 3047 3046 3047 3048 3048 3048 3048 3048 3051 3054 3056 3055 3052 3053 3057 3056 3053 3056 3060 3064 3066 3065 3066 3067 3067 3067 3067 3067 3067 3067 3066 3067 3068
2961 2962 2964 2966 2967 2970 2971 2971 2972 2973 2973 2975 2977 2978 2981 2982 2983 2988 2990 2990 2992 2994 2996 2995 2998 3003 3006 3007 3008 3007 3007 3010 3014 3018 3021 3021 3022 3024 3025 3026 3029 3031 3032 3034 3034 3035 3036 3036 3036 3039 3039 3037 3037 3040 3042 3041 3043 3044 3040 3037 3038 3040 3042 3045 3047 3048 3048 3047 3050 3052 3049 3047 3052 3056 3059 3060 3060 3062 3062 3062 3062 3062 3062 3061 3061 3061 3062 3063
2957 2957 2959 2961 2962 2964 2967 2968 2969 2968 2968 2969 2971 2974 2976 2977 2980 2985 2986 2986 2988 2991 2991 2992 2996 2999 3000 2999 3000 3001 3004 3009 3012 3015 3017 3017 3018 3019 3020 3021 3024 3025 3026 3028 3029 3029 3030 3030 3031 3033 3033 3031 3032 3035 3037 3040 3042 3034 3022 3023 3030 3033 3036 3040 3041 3041 3042 3043 3045 3044 3042 3045 3050 3052 3053 3054 3056 3057 3057 3057 3058 3057 3056 3056 3055 3056 3057 3058